Probability
0 0 0 0 0 0 0 0 0 0 0 0 0 0 0 0 0 0 6 6 10 6 6 10 13 13 6 6 6 6 10 3 0 0 3 3 3 3 3 0 0 0 0 0
0 0 0 0 0 0 0 0 0 0 0 0 0 0 0 0 0 0 3 6 6 3 6 6 6 6 6 10 6 6 3 3 0 0 0 3 0 3 3 0 0 0 0 0
0 0 0 0 0 0 0 0 0 0 0 0 0 0 0 0 0 0 0 0 3 6 10 6 3 6 6 10 10 6 3 3 3 0 0 0 0 0 0 0 0 0 0 0
0 0 0 0 0 0 0 0 0 0 0 0 0 0 0 0 0 0 0 0 0 3 6 6 3 3 6 10 10 10 6 6 3 3 0 0 0 0 0 0 0 0 0 0
0 0 0 0 0 0 0 0 0 0 0 0 0 0 0 0 0 0 0 0 0 0 3 3 6 6 3 6 6 10 10 10 6 3 3 0 0 0 0 0 0 0 0 0
0 0 0 0 0 0 0 0 0 0 0 0 0 0 0 0 0 0 0 0 0 0 3 3 3 6 3 3 6 3 3 6 6 6 3 0 0 0 0 0 0 0 0 0
0 0 0 0 0 0 0 0 0 0 0 0 0 0 0 0 0 0 0 0 0 0 0 3 0 0 3 3 3 3 3 3 3 3 6 0 0 0 0 0 0 0 0 0
0 0 0 0 0 0 0 0 0 0 0 0 0 0 0 0 0 0 0 0 0 0 0 0 0 0 3 3 3 3 0 0 3 3 3 3 3 0 0 0 0 0 0 0
0 0 0 0 0 0 0 0 0 0 0 0 0 0 0 0 0 0 0 0 0 0 0 0 0 0 0 3 3 3 0 0 0 3 3 3 3 3 3 3 3 3 3 0
0 0 0 0 0 0 0 0 0 0 0 0 0 0 0 0 0 0 0 0 0 0 0 0 0 0 0 3 3 0 0 0 0 0 3 3 3 3 3 3 3 3 0 0
0 0 0 0 0 0 0 0 0 0 0 0 0 0 0 0 0 0 0 0 0 0 0 0 0 0 0 3 0 0 0 0 0 0 0 0 0 3 3 3 3 0 0 0
0 0 0 0 0 0 0 0 0 0 0 0 0 0 0 0 0 0 0 0 0 0 0 0 0 0 0 0 0 0 0 0 0 0 0 0 0 0 0 0 0 0 0 0
0 0 0 0 0 0 0 0 0 0 0 0 0 0 0 0 0 0 0 0 0 0 0 0 0 0 0 0 0 0 0 0 0 0 0 0 0 0 0 0 0 0 0 0
0 0 0 0 0 0 0 0 0 0 0 0 0 0 0 0 0 0 0 0 0 0 0 0 0 0 0 0 0 0 0 0 0 0 0 0 0 0 0 0 0 0 0 0
0 0 0 0 0 0 0 0 0 0 0 0 0 0 0 0 0 0 0 0 0 0 0 0 0 0 0 0 0 0 0 0 0 0 0 0 0 0 0 0 0 0 0 0
0 0 0 0 0 0 0 0 0 0 0 0 0 0 0 0 0 0 0 0 0 0 0 0 0 0 0 0 0 0 0 0 0 0 0 0 0 0 0 0 0 0 0 0
0 0 0 0 0 0 0 0 0 0 0 0 0 0 0 0 0 0 0 0 0 0 0 0 0 0 0 0 0 0 0 0 0 0 0 0 0 0 0 0 0 0 0 0
0 0 0 0 0 0 0 0 0 0 0 0 0 0 0 0 0 0 0 0 0 0 0 0 0 0 0 0 0 0 0 0 0 0 0 0 0 0 0 0 0 0 0 0
0 0 0 0 0 0 0 0 0 0 0 0 0 0 0 0 0 0 0 0 0 0 0 0 0 0 0 0 0 0 0 0 0 0 0 0 0 0 0 0 0 0 0 0
0 0 0 0 0 0 0 0 0 0 0 0 0 0 0 0 0 0 0 0 0 0 0 0 0 0 0 0 0 0 0 0 0 0 0 0 0 0 0 0 0 0 0 0
0 0 0 0 0 0 0 0 0 0 0 0 0 0 0 0 0 0 0 0 0 0 0 0 0 0 0 0 0 0 0 0 0 0 0 0 0 0 0 0 0 0 0 0
0 0 0 0 0 0 0 0 0 0 0 0 0 0 0 0 0 0 0 0 0 0 0 0 0 0 0 0 0 0 0 0 0 0 0 0 0 0 0 0 0 0 0 0
0 0 0 0 0 0 0 0 0 0 0 0 0 0 0 0 0 0 0 0 0 0 0 0 0 0 0 0 0 0 0 0 0 0 0 0 0 0 0 0 0 0 0 0
0 0 0 0 0 0 0 0 0 0 0 0 0 0 0 0 0 0 0 0 0 0 0 0 0 0 0 0 0 0 0 0 0 0 0 0 0 0 0 0 0 0 0 0
0 0 0 0 0 0 0 0 0 0 0 0 0 0 0 0 0 0 0 0 0 0 0 0 0 0 0 0 0 0 0 0 0 0 0 0 0 0 0 0 0 0 0 0
0 0 0 0 0 0 0 0 0 0 0 0 0 0 0 0 0 0 0 0 0 0 0 0 0 0 0 0 0 0 0 0 0 0 0 0 0 0 0 0 0 0 0 0
Height
5623 5627 5630 5637 5643 5650 5656 5662 5667 5673 5678 5684 5689 5696 5701 5706 5712 5718 5723 5728 5734 5739 5744 5749 5754 5759 5764 5769 5773 5777 5781 5784 5788 5791 5795 5797 5800 5802 5804 5806 5807 5808 5810 5810
5619 5621 5627 5632 5637 5642 5647 5653 5659 5665 5670 5675 5681 5687 5692 5697 5704 5710 5715 5721 5726 5731 5736 5741 5746 5751 5757 5761 5765 5770 5773 5777 5780 5784 5787 5790 5793 5795 5797 5798 5800 5801 5802 5803
5615 5619 5622 5627 5631 5636 5641 5647 5653 5658 5663 5667 5672 5678 5683 5689 5695 5701 5707 5713 5718 5723 5728 5733 5738 5744 5749 5753 5758 5762 5766 5769 5772 5775 5779 5782 5784 5786 5789 5791 5792 5793 5794 5795
5611 5615 5618 5622 5627 5631 5636 5642 5647 5651 5655 5659 5664 5669 5675 5680 5686 5693 5699 5705 5710 5715 5720 5725 5730 5735 5740 5745 5749 5753 5757 5761 5765 5768 5771 5774 5777 5779 5781 5782 5784 5785 5786 5787
5609 5612 5616 5619 5623 5627 5631 5636 5641 5645 5648 5652 5656 5660 5667 5672 5677 5685 5691 5697 5702 5707 5712 5717 5721 5726 5731 5735 5740 5744 5748 5752 5756 5759 5763 5766 5768 5770 5772 5774 5776 5777 5778 5779
5607 5609 5613 5616 5619 5623 5627 5631 5635 5638 5641 5645 5649 5653 5658 5664 5671 5677 5683 5688 5693 5698 5703 5707 5712 5716 5721 5726 5731 5736 5739 5743 5747 5750 5754 5757 5759 5762 5764 5765 5767 5769 5770 5771
5606 5608 5610 5613 5616 5619 5622 5626 5629 5631 5633 5637 5643 5646 5651 5658 5664 5669 5674 5679 5684 5688 5693 5698 5702 5707 5712 5717 5722 5726 5730 5734 5738 5741 5745 5748 5750 5753 5755 5757 5758 5760 5761 5762
5604 5606 5608 5609 5612 5614 5617 5621 5625 5627 5629 5633 5636 5639 5645 5650 5655 5660 5665 5669 5674 5679 5684 5689 5693 5699 5704 5708 5712 5717 5721 5725 5729 5732 5735 5738 5741 5744 5746 5748 5749 5751 5753 5754
5602 5604 5605 5607 5609 5611 5613 5616 5619 5622 5624 5627 5629 5633 5639 5643 5647 5652 5656 5660 5665 5670 5675 5680 5684 5689 5694 5698 5703 5708 5712 5715 5719 5722 5726 5729 5732 5734 5737 5738 5740 5742 5743 5745
5600 5602 5603 5604 5606 5607 5610 5611 5614 5616 5618 5620 5624 5628 5632 5636 5640 5645 5649 5653 5657 5662 5666 5671 5676 5680 5684 5689 5693 5698 5702 5706 5709 5713 5716 5719 5722 5725 5727 5729 5731 5733 5734 5735
5598 5599 5601 5601 5602 5603 5606 5607 5609 5611 5613 5616 5618 5624 5626 5629 5633 5637 5641 5645 5649 5653 5658 5662 5667 5671 5675 5680 5684 5688 5692 5696 5699 5702 5706 5709 5712 5715 5717 5720 5722 5723 5725 5726
5595 5596 5597 5598 5599 5599 5601 5602 5604 5607 5609 5610 5613 5619 5619 5622 5625 5629 5633 5638 5641 5645 5649 5653 5658 5662 5666 5670 5675 5678 5682 5686 5689 5692 5696 5699 5702 5705 5707 5710 5712 5713 5715 5716
5592 5593 5593 5594 5596 5596 5596 5597 5599 5601 5603 5605 5607 5613 5612 5615 5618 5621 5625 5629 5633 5637 5640 5645 5649 5653 5657 5661 5665 5668 5672 5675 5679 5682 5686 5689 5692 5695 5697 5700 5702 5703 5705 5706
5589 5589 5590 5590 5590 5590 5591 5592 5593 5595 5596 5598 5601 5604 5606 5608 5610 5613 5617 5620 5624 5628 5632 5636 5639 5643 5648 5652 5655 5659 5662 5666 5669 5672 5676 5679 5682 5685 5687 5690 5692 5693 5695 5696
5586 5586 5585 5585 5585 5585 5586 5587 5588 5589 5590 5592 5594 5596 5599 5600 5603 5606 5608 5611 5615 5619 5622 5626 5630 5634 5638 5642 5646 5649 5652 5656 5659 5663 5666 5669 5672 5675 5677 5679 5681 5683 5684 5686
5582 5582 5581 5581 5581 5580 5581 5582 5582 5583 5583 5585 5586 5589 5591 5593 5595 5597 5600 5603 5607 5610 5613 5617 5621 5624 5628 5632 5636 5639 5642 5646 5649 5653 5656 5659 5662 5665 5667 5669 5671 5672 5674 5675
5579 5578 5577 5576 5576 5575 5576 5576 5576 5577 5577 5578 5579 5582 5583 5585 5587 5589 5592 5595 5598 5601 5604 5608 5611 5615 5619 5622 5626 5629 5633 5636 5639 5642 5646 5649 5651 5654 5657 5658 5660 5662 5663 5664
5575 5573 5572 5571 5571 5570 5572 5569 5569 5569 5570 5570 5571 5573 5575 5576 5578 5581 5583 5586 5589 5592 5595 5599 5602 5605 5609 5612 5616 5619 5623 5626 5629 5632 5635 5638 5641 5643 5646 5648 5650 5651 5652 5653
5571 5569 5567 5566 5564 5564 5565 5563 5562 5562 5563 5563 5563 5564 5566 5568 5570 5572 5574 5577 5580 5583 5586 5589 5592 5596 5599 5602 5606 5609 5613 5616 5619 5622 5624 5627 5630 5632 5635 5637 5639 5640 5641 5643
5567 5565 5563 5561 5559 5558 5559 5557 5555 5555 5555 5556 5556 5557 5558 5559 5561 5564 5566 5568 5570 5573 5576 5579 5583 5586 5589 5592 5595 5599 5602 5605 5608 5611 5614 5616 5619 5621 5624 5625 5627 5629 5630 5631
5563 5560 5558 5556 5553 5552 5552 5550 5549 5550 5550 5548 5548 5548 5549 5551 5554 5556 5557 5559 5561 5564 5567 5570 5573 5576 5579 5582 5585 5588 5591 5595 5598 5600 5603 5605 5608 5610 5612 5614 5616 5618 5619 5620
5558 5556 5553 5551 5548 5550 5546 5545 5544 5543 5541 5541 5540 5540 5541 5543 5544 5546 5548 5550 5553 5555 5558 5561 5563 5566 5569 5572 5575 5578 5581 5584 5586 5589 5592 5595 5597 5599 5601 5603 5605 5606 5608 5609
5554 5552 5548 5547 5546 5543 5540 5538 5537 5535 5534 5533 5533 5533 5533 5534 5535 5537 5539 5542 5544 5546 5549 5551 5554 5557 5559 5562 5565 5568 5570 5573 5575 5578 5580 5583 5586 5588 5590 5592 5594 5596 5597 5598
5549 5546 5543 5540 5539 5537 5534 5532 5530 5529 5527 5526 5526 5525 5525 5526 5527 5528 5530 5533 5535 5537 5540 5542 5545 5547 5550 5552 5555 5558 5560 5563 5565 5567 5570 5572 5574 5577 5579 5581 5583 5585 5586 5588
5544 5540 5537 5534 5533 5531 5529 5526 5524 5523 5521 5520 5519 5518 5518 5519 5519 5520 5522 5524 5526 5528 5530 5533 5536 5538 5541 5543 5545 5548 5550 5553 5555 5557 5559 5561 5564 5566 5568 5571 5573 5574 5576 5577
5538 5535 5531 5529 5526 5524 5522 5520 5518 5516 5515 5513 5513 5512 5512 5512 5512 5512 5513 5515 5517 5519 5522 5524 5526 5529 5531 5534 5536 5538 5540 5543 5545 5547 5549 5552 5554 5556 5558 5560 5562 5564 5565 5567
Wind_Speed
22 25 28 31 34 36 38 40 42 42 42 43 44 44 45 44 45 45 45 46 46 47 47 47 47 47 46 44 43 42 42 41 41 40 40 39 38 37 36 36 37 36 35 34
21 23 24 26 29 32 35 37 39 40 40 42 44 44 45 46 45 45 46 46 46 47 47 47 46 45 45 44 43 43 42 42 41 41 41 40 40 39 38 38 38 37 37 36
18 21 21 24 27 29 33 35 36 36 38 39 41 44 45 46 45 45 46 46 46 47 47 47 47 45 44 45 44 44 43 42 41 42 41 40 40 41 41 40 39 39 39 38
16 19 19 21 25 27 30 32 33 34 34 36 39 41 44 45 46 45 46 46 45 46 47 47 47 46 45 45 45 45 44 44 43 41 41 41 40 41 41 41 40 40 39 39
13 16 16 18 22 26 27 30 31 32 33 34 36 39 43 44 45 45 45 46 45 46 47 47 47 47 46 46 47 46 45 44 43 41 41 41 40 39 39 39 39 39 40 39
12 14 15 16 19 22 25 27 29 31 32 33 35 36 40 42 43 44 45 45 45 46 47 48 48 48 48 47 47 47 46 45 44 43 42 42 42 41 40 39 40 40 40 40
11 13 13 14 17 20 23 25 26 29 31 33 33 35 38 39 41 42 44 45 45 46 46 47 47 48 47 48 47 47 46 46 45 44 44 43 43 42 42 42 41 41 41 41
10 11 14 13 15 17 21 24 26 28 30 33 34 35 35 36 38 40 42 44 45 46 46 45 47 48 48 48 47 47 47 46 45 45 45 44 43 43 43 43 42 41 41 41
10 11 14 15 15 16 19 23 25 26 28 30 33 34 33 34 35 36 39 41 43 43 43 44 44 45 46 47 47 47 47 46 46 46 46 46 45 43 43 44 43 42 42 42
10 12 14 15 16 17 18 21 23 24 26 29 31 33 34 34 35 35 36 38 40 41 41 42 43 44 44 44 45 46 46 46 46 47 47 46 45 44 43 43 44 43 43 42
11 12 14 16 18 18 20 21 23 25 25 27 29 31 32 33 34 35 35 36 38 40 41 42 42 43 43 43 44 44 45 46 46 47 47 46 45 44 44 44 43 43 42 42
13 13 13 16 18 19 20 22 23 25 26 26 28 30 31 32 33 34 36 37 38 39 40 42 41 41 42 42 43 43 44 45 46 46 46 46 45 45 45 44 44 44 43 42
14 14 14 15 18 19 22 23 25 25 26 27 28 29 30 30 31 33 34 36 38 39 40 41 42 42 41 41 42 43 43 44 44 44 45 46 45 44 44 44 44 44 43 42
13 14 14 15 16 18 20 23 25 26 26 27 29 31 30 30 31 32 34 35 36 38 39 40 42 43 42 42 42 42 42 42 43 43 44 45 45 45 45 45 44 43 42 42
13 14 15 15 16 18 20 21 25 25 26 27 27 29 30 31 32 32 33 35 36 37 38 39 40 42 42 41 41 42 43 42 42 42 43 44 44 44 44 44 44 43 42 42
14 15 15 15 16 18 21 22 23 24 26 27 28 28 29 31 32 33 34 34 35 37 38 38 39 41 41 41 41 41 42 43 43 43 43 43 43 43 43 43 43 42 42 42
14 14 15 15 16 18 20 21 22 24 26 27 29 28 28 30 32 33 34 35 35 36 37 38 39 41 42 42 42 42 43 43 43 43 43 43 43 43 43 43 43 43 42 43
15 15 15 16 16 17 18 20 22 24 24 25 27 29 29 29 29 31 33 35 36 37 38 39 39 40 41 41 41 42 42 42 42 43 43 43 44 44 43 43 43 43 43 43
15 16 17 18 18 18 18 20 22 24 25 24 25 27 28 28 29 31 32 33 35 36 37 38 39 39 40 40 41 41 42 42 42 42 42 42 43 43 44 44 44 43 43 43
16 16 17 18 19 19 18 20 20 22 23 24 25 26 28 29 29 30 31 32 33 34 35 37 38 38 39 40 41 42 42 41 41 41 41 42 42 42 43 43 43 43 44 43
18 17 17 18 19 20 19 19 20 21 22 23 25 26 29 31 31 31 31 32 33 34 34 35 36 37 38 40 40 41 41 42 42 42 41 41 42 42 42 42 42 43 43 43
19 19 18 18 18 19 19 20 20 20 21 23 24 25 28 30 31 32 33 32 33 33 34 34 35 36 37 38 39 39 40 40 41 42 43 43 42 42 42 42 42 42 41 41
20 20 20 19 19 19 20 20 21 21 20 21 23 24 26 28 30 32 33 32 33 33 33 33 34 34 35 36 37 38 38 39 40 41 41 42 42 42 42 41 40 40 40 40
22 21 21 20 19 20 20 21 21 21 20 20 21 21 24 26 28 29 31 31 32 32 33 33 34 34 34 34 35 35 37 38 38 38 39 40 40 40 40 39 39 39 39 38
23 22 22 20 19 19 20 21 21 21 21 20 20 21 22 24 25 27 28 29 31 32 32 32 33 33 33 33 33 34 35 35 36 35 35 36 37 38 38 38 38 38 37 37
23 22 22 21 20 20 20 21 21 21 21 21 21 21 21 22 23 24 26 28 28 29 30 31 32 32 33 33 34 34 34 34 34 33 33 33 33 35 36 37 37 37 36 36
Wind_Direction
235 227 226 228 229 230 229 228 227 228 229 229 229 229 228 228 228 228 227 226 227 226 226 227 226 226 227 228 230 230 231 233 235 236 238 240 241 244 248 250 252 255 257 260
228 227 228 227 228 228 226 227 228 229 229 230 230 229 228 228 227 228 227 226 226 226 226 226 227 228 228 228 229 231 231 233 235 237 239 240 242 245 248 251 252 255 257 258
228 225 225 224 225 227 226 226 227 228 229 232 232 231 229 228 228 227 227 227 226 226 227 226 227 228 228 229 229 230 231 234 236 238 239 241 244 246 249 251 253 255 257 259
228 222 223 223 224 227 226 224 227 229 230 232 232 234 230 229 227 226 226 226 227 226 226 227 227 228 228 229 229 230 232 234 236 238 240 242 245 248 250 252 254 256 257 258
230 222 222 224 225 227 227 226 227 230 233 233 233 235 232 229 229 227 227 227 228 228 226 227 229 229 228 229 230 231 233 234 235 238 240 241 243 247 250 252 254 255 257 259
233 227 224 224 228 229 229 228 228 231 232 234 233 236 234 231 230 229 229 229 229 230 228 228 229 227 228 228 230 231 233 235 237 238 240 242 245 248 251 253 255 257 258 260
237 231 224 223 226 228 229 228 228 231 233 234 234 237 236 233 232 231 230 230 230 231 231 230 230 229 229 231 232 232 234 236 238 240 242 244 246 249 252 254 256 258 259 259
239 231 227 228 231 231 229 230 231 234 237 236 234 236 235 233 232 232 232 231 231 232 232 232 232 230 231 233 234 234 235 237 239 241 243 245 247 250 252 254 255 257 258 259
245 237 232 235 237 236 232 231 232 238 241 241 238 236 234 232 232 231 232 231 232 233 234 234 233 232 232 233 234 236 236 238 240 242 244 246 247 249 251 253 255 257 259 260
247 246 240 241 240 237 238 236 234 236 240 242 241 239 235 232 232 232 232 232 232 232 233 232 233 233 233 234 235 235 236 239 241 242 244 246 247 248 250 253 255 257 260 262
256 253 244 245 246 245 240 239 236 239 239 241 242 240 237 237 236 234 234 233 232 233 233 232 233 234 234 234 235 237 237 239 241 242 243 245 247 249 250 252 254 257 260 262
268 261 254 249 249 250 245 241 240 241 242 242 244 241 238 240 239 238 235 234 234 233 233 234 234 235 235 236 236 236 238 239 241 243 244 245 247 249 251 253 254 257 259 262
272 266 263 258 253 252 249 244 242 243 245 244 244 243 241 241 241 240 238 236 236 236 236 236 236 236 236 237 237 237 239 240 241 242 244 245 247 249 251 253 255 258 259 261
280 270 266 265 260 256 249 245 243 245 247 247 245 244 244 244 243 241 240 238 237 237 237 236 237 237 237 239 240 240 242 242 242 243 244 245 247 249 252 254 255 257 259 261
290 279 272 270 265 259 253 247 247 248 248 250 249 247 245 245 245 243 240 239 239 238 238 237 237 238 239 239 240 241 243 243 244 244 245 246 247 250 252 254 256 257 258 260
298 289 281 274 269 263 256 249 250 251 252 252 251 247 246 246 246 243 241 241 241 241 240 239 238 238 238 238 239 241 242 244 245 245 245 246 247 250 252 254 256 256 258 260
304 298 290 279 275 271 263 257 253 252 254 254 252 248 248 248 247 245 242 241 241 241 241 240 240 239 239 240 240 241 243 245 246 247 247 247 247 250 252 254 255 257 258 260
306 299 294 287 282 277 272 264 259 255 255 255 253 250 248 248 247 246 244 243 241 241 242 241 241 241 241 241 242 242 244 246 247 248 248 249 250 251 253 253 254 257 258 260
311 302 297 294 290 285 279 272 266 259 258 257 255 250 248 248 247 244 244 244 243 242 242 242 242 243 243 242 242 243 245 246 247 248 249 250 251 251 252 254 255 257 258 260
315 307 301 297 294 290 286 279 272 267 263 260 257 253 247 246 248 246 245 245 244 243 242 242 242 243 243 243 244 244 245 246 246 247 248 249 250 251 252 254 255 256 258 260
313 309 305 298 293 290 289 283 279 274 269 263 260 256 251 249 249 248 247 246 245 243 243 243 242 242 243 243 244 245 245 246 246 247 248 249 250 251 253 255 256 257 258 260
311 308 305 300 295 294 288 284 284 281 274 267 262 258 255 252 250 250 249 248 246 244 244 243 243 243 243 243 243 244 245 246 247 248 249 250 251 252 254 255 256 258 258 260
313 310 305 300 294 290 288 286 285 281 277 271 266 260 257 254 251 250 250 249 247 245 244 244 243 243 243 243 243 243 244 245 247 249 249 249 251 253 254 255 256 257 258 261
316 312 308 305 299 293 288 286 286 282 278 274 271 265 260 256 253 250 249 249 248 246 245 245 245 244 243 243 243 244 245 245 246 248 250 250 250 251 252 253 255 257 259 262
314 313 311 306 301 297 293 290 289 284 279 277 274 268 264 260 257 254 250 248 247 246 245 245 245 245 244 244 244 244 245 245 246 249 250 249 249 250 251 253 255 257 259 261
315 313 311 307 302 299 297 293 292 289 284 280 275 267 264 261 258 256 252 248 247 247 245 245 245 246 246 246 246 247 246 245 246 247 249 250 251 251 251 253 254 256 258 260